GEFSMA_prec_meanprecacc_120.txt.gz
Total_Precipitation_Accumulation
1.61 1.66 1.63 1.54 1.50 1.87 2.28 2.43 2.23 2.47 2.52 2.17 1.88 1.75 1.65 1.62 1.73 1.89 1.84 2.10 2.04 1.99 2.17 2.24 2.07 1.82 1.63 1.34 1.13 0.97 0.83 0.80 0.73 0.58 0.46 0.39 0.36 0.35 0.34 0.35 0.36 0.32 0.29
2.09 2.12 2.00 1.87 1.69 1.76 2.04 2.25 2.27 2.48 2.36 2.28 1.73 1.65 1.60 1.67 1.77 1.79 1.76 2.27 2.29 2.08 2.07 2.17 2.21 2.08 1.91 1.76 1.49 1.22 1.01 0.91 0.83 0.65 0.52 0.46 0.41 0.35 0.35 0.37 0.40 0.36 0.26
2.52 2.41 2.16 1.90 1.81 1.87 1.98 1.98 2.00 2.12 1.98 1.93 1.71 1.78 1.74 1.60 1.45 1.46 1.59 1.81 1.83 1.73 1.70 1.76 1.94 2.09 2.22 2.19 2.01 1.82 1.43 1.12 0.94 0.74 0.58 0.47 0.41 0.36 0.34 0.36 0.41 0.40 0.30
2.41 2.34 2.02 1.70 1.79 1.90 1.87 1.83 1.74 1.83 1.80 1.85 1.84 1.72 1.76 1.62 1.33 1.29 1.34 1.33 1.41 1.29 1.43 1.54 1.62 1.81 2.23 2.55 2.62 2.51 2.13 1.55 1.13 0.90 0.73 0.57 0.46 0.38 0.34 0.35 0.40 0.39 0.31
2.16 2.24 1.92 1.75 1.78 1.73 1.62 1.54 1.72 1.88 1.81 1.82 1.78 1.62 1.42 1.25 1.06 0.95 0.94 0.87 0.99 1.09 1.23 1.38 1.45 1.55 1.99 2.57 3.02 3.16 2.91 2.26 1.64 1.23 1.03 0.86 0.68 0.52 0.41 0.37 0.36 0.33 0.28
1.78 1.85 1.64 1.58 1.67 1.62 1.49 1.56 1.71 1.81 1.61 1.67 1.59 1.32 1.17 0.96 0.89 0.78 0.67 0.66 0.64 0.66 0.84 1.17 1.42 1.25 1.56 2.05 2.58 2.98 3.23 2.93 2.31 1.85 1.50 1.20 0.99 0.77 0.55 0.45 0.39 0.34 0.29
1.29 1.45 1.29 1.36 1.42 1.36 1.29 1.30 1.39 1.42 1.25 1.49 1.57 1.12 0.82 0.73 0.67 0.59 0.59 0.58 0.52 0.60 0.77 1.02 1.21 1.26 1.21 1.33 1.64 2.08 2.76 3.08 2.83 2.39 2.00 1.63 1.36 1.10 0.78 0.59 0.52 0.42 0.36
1.14 1.09 1.07 1.07 1.13 1.16 1.07 1.03 1.16 1.14 0.98 1.24 1.34 1.19 0.80 0.63 0.54 0.45 0.48 0.48 0.51 0.65 0.68 0.79 1.01 1.13 1.07 1.31 1.21 1.27 1.88 2.48 2.82 2.76 2.41 1.97 1.62 1.34 1.05 0.85 0.68 0.54 0.44
1.25 1.19 1.09 1.00 0.96 0.99 0.99 0.97 1.05 1.06 0.94 0.98 1.11 1.27 0.99 0.67 0.52 0.38 0.40 0.47 0.59 0.71 0.71 0.79 0.87 1.02 1.02 1.18 1.27 1.31 1.34 1.65 2.25 2.85 2.85 2.38 1.83 1.39 1.12 1.04 0.94 0.72 0.55
1.42 1.29 1.17 0.98 0.84 0.82 0.87 0.79 0.86 0.98 1.00 0.89 0.89 0.97 0.99 1.01 0.91 0.55 0.34 0.37 0.56 0.66 0.69 0.71 0.79 0.94 1.05 1.18 1.33 1.53 1.38 1.31 1.67 2.37 2.79 2.72 2.27 1.73 1.38 1.27 1.40 1.29 0.89
1.17 1.01 0.94 0.87 0.78 0.70 0.70 0.74 0.85 0.94 0.96 0.88 0.88 0.87 0.92 1.06 1.07 0.93 0.60 0.52 0.57 0.56 0.55 0.60 0.72 0.87 1.01 1.22 1.51 1.66 1.79 1.56 1.47 1.65 2.00 2.24 2.33 2.09 1.79 1.72 2.06 2.21 1.83
0.78 0.73 0.70 0.71 0.70 0.68 0.69 0.69 0.75 0.84 0.92 0.96 0.97 1.01 1.06 1.07 1.13 1.22 0.99 0.82 0.75 0.66 0.64 0.73 0.85 1.03 1.15 1.29 1.37 1.52 1.57 1.62 1.58 1.53 1.58 1.69 1.87 1.98 2.01 2.09 2.39 2.68 2.72
0.54 0.58 0.60 0.64 0.64 0.69 0.74 0.81 0.81 0.82 0.89 1.00 1.03 1.11 1.19 1.18 1.24 1.34 1.28 1.09 0.99 0.96 0.98 0.98 1.00 1.16 1.17 1.28 1.42 1.32 1.12 1.20 1.22 1.23 1.23 1.24 1.34 1.54 1.68 1.79 2.08 2.42 2.68
0.53 0.55 0.63 0.69 0.68 0.68 0.69 0.79 0.83 0.90 0.97 1.01 1.00 1.16 1.25 1.19 1.31 1.44 1.47 1.43 1.30 1.29 1.36 1.37 1.17 1.09 1.11 1.20 1.31 1.20 1.11 1.01 0.82 0.74 0.73 0.77 0.84 0.99 1.15 1.31 1.50 1.69 1.93
0.57 0.62 0.69 0.78 0.79 0.78 0.80 0.84 0.85 0.95 1.13 1.20 1.18 1.23 1.29 1.27 1.31 1.44 1.56 1.60 1.58 1.52 1.52 1.51 1.26 1.11 1.02 1.03 1.12 1.18 1.29 1.09 0.74 0.58 0.52 0.52 0.57 0.65 0.73 0.87 1.01 1.17 1.31
0.62 0.66 0.71 0.74 0.78 0.79 0.80 0.85 0.90 1.00 1.16 1.24 1.32 1.40 1.40 1.34 1.38 1.45 1.50 1.62 1.73 1.74 1.63 1.48 1.31 1.19 1.11 0.97 0.99 0.96 1.03 0.91 0.67 0.56 0.50 0.47 0.46 0.48 0.54 0.62 0.70 0.83 0.96
0.61 0.68 0.65 0.59 0.56 0.60 0.72 0.87 0.93 1.01 1.10 1.14 1.21 1.23 1.22 1.26 1.31 1.26 1.34 1.47 1.63 1.77 1.64 1.53 1.45 1.41 1.34 1.24 1.11 0.91 0.79 0.70 0.62 0.59 0.51 0.46 0.46 0.46 0.46 0.48 0.53 0.61 0.72
0.58 0.63 0.60 0.54 0.53 0.58 0.71 0.86 1.00 1.20 1.33 1.30 1.22 1.15 1.07 1.14 1.23 1.25 1.33 1.36 1.43 1.64 1.64 1.61 1.60 1.62 1.53 1.35 1.25 1.11 0.91 0.79 0.75 0.69 0.58 0.50 0.44 0.44 0.43 0.44 0.49 0.54 0.63
0.58 0.58 0.58 0.63 0.73 0.82 0.93 1.05 1.11 1.24 1.29 1.21 1.17 1.10 1.03 1.03 1.08 1.18 1.29 1.33 1.32 1.39 1.54 1.58 1.60 1.67 1.65 1.45 1.27 1.15 1.05 1.07 0.98 0.81 0.63 0.53 0.47 0.43 0.42 0.41 0.49 0.58 0.71
0.45 0.54 0.66 0.83 0.95 1.01 1.03 1.10 1.09 1.07 1.07 0.98 0.92 0.87 0.90 1.01 1.07 1.07 1.06 1.10 1.15 1.26 1.35 1.42 1.50 1.62 1.67 1.60 1.38 1.26 1.24 1.20 1.12 0.86 0.73 0.60 0.51 0.44 0.40 0.36 0.39 0.53 0.68
0.45 0.58 0.73 0.82 0.82 0.84 0.90 0.97 0.97 0.93 0.88 0.82 0.73 0.59 0.59 0.76 0.90 0.93 0.87 0.91 0.96 1.05 1.10 1.20 1.31 1.46 1.56 1.64 1.46 1.28 1.24 1.31 1.27 1.14 0.98 0.80 0.66 0.58 0.55 0.51 0.44 0.44 0.50
0.54 0.64 0.74 0.74 0.69 0.54 0.48 0.49 0.55 0.61 0.67 0.67 0.59 0.54 0.53 0.54 0.56 0.58 0.63 0.68 0.75 0.84 0.96 1.11 1.24 1.32 1.35 1.45 1.54 1.51 1.45 1.41 1.41 1.38 1.38 1.31 1.04 0.94 0.90 0.84 0.67 0.46 0.37
0.61 0.67 0.68 0.69 0.67 0.63 0.45 0.34 0.33 0.41 0.48 0.50 0.50 0.54 0.43 0.37 0.42 0.42 0.43 0.41 0.43 0.49 0.61 0.84 1.06 1.15 1.27 1.30 1.52 1.57 1.59 1.70 1.71 1.70 1.67 1.72 1.45 1.19 1.01 0.93 0.83 0.60 0.45
0.71 0.74 0.70 0.72 0.76 0.72 0.57 0.44 0.36 0.32 0.39 0.42 0.45 0.48 0.48 0.49 0.50 0.51 0.49 0.46 0.41 0.38 0.40 0.49 0.70 0.95 1.16 1.39 1.46 1.54 1.62 1.69 1.72 1.61 1.55 1.66 1.59 1.47 1.24 0.94 0.83 0.73 0.61
0.92 0.89 0.88 0.90 0.91 0.90 0.73 0.50 0.39 0.40 0.49 0.49 0.51 0.51 0.52 0.52 0.51 0.41 0.43 0.45 0.45 0.46 0.38 0.39 0.49 0.70 0.90 1.01 1.23 1.44 1.56 1.49 1.43 1.26 1.11 1.22 1.34 1.39 1.43 1.27 0.97 0.87 0.75
1.10 1.03 0.97 0.97 0.97 1.00 0.89 0.56 0.42 0.50 0.67 0.71 0.73 0.68 0.54 0.47 0.42 0.32 0.37 0.49 0.47 0.46 0.52 0.48 0.42 0.48 0.62 0.76 0.83 0.95 1.17 1.28 1.18 1.13 0.96 0.87 0.88 1.00 1.14 1.09 0.94 0.89 0.89

GEFSMA_prec_meanprecacc_126.txt.gz
Total_Precipitation_Accumulation
1.68 1.72 1.71 1.63 1.57 1.93 2.34 2.49 2.27 2.52 2.56 2.20 1.91 1.77 1.67 1.65 1.76 1.93 1.89 2.14 2.10 2.06 2.26 2.33 2.16 1.90 1.72 1.43 1.21 1.05 0.90 0.85 0.78 0.62 0.49 0.42 0.38 0.37 0.36 0.37 0.38 0.35 0.31
2.17 2.20 2.08 1.95 1.76 1.82 2.10 2.30 2.31 2.53 2.41 2.31 1.76 1.67 1.62 1.68 1.80 1.83 1.83 2.34 2.35 2.15 2.14 2.26 2.32 2.19 2.02 1.87 1.60 1.33 1.11 1.00 0.90 0.70 0.56 0.49 0.45 0.40 0.38 0.41 0.45 0.40 0.29
2.59 2.48 2.23 1.97 1.87 1.93 2.03 2.03 2.04 2.16 2.01 1.95 1.74 1.81 1.76 1.62 1.48 1.50 1.64 1.87 1.89 1.77 1.75 1.84 2.03 2.19 2.32 2.32 2.14 1.95 1.55 1.21 1.02 0.80 0.63 0.50 0.44 0.38 0.38 0.39 0.44 0.43 0.33
2.49 2.41 2.08 1.76 1.84 1.93 1.91 1.89 1.78 1.86 1.84 1.89 1.88 1.76 1.80 1.65 1.35 1.31 1.36 1.36 1.45 1.34 1.51 1.61 1.70 1.90 2.33 2.66 2.75 2.64 2.24 1.63 1.21 0.97 0.78 0.61 0.50 0.40 0.36 0.37 0.42 0.42 0.33
2.24 2.32 2.00 1.81 1.83 1.77 1.67 1.59 1.75 1.91 1.84 1.86 1.81 1.65 1.46 1.29 1.09 0.96 0.95 0.90 1.04 1.16 1.33 1.44 1.49 1.60 2.07 2.67 3.15 3.31 3.05 2.38 1.74 1.31 1.10 0.92 0.74 0.57 0.44 0.40 0.39 0.35 0.30
1.85 1.93 1.72 1.63 1.71 1.68 1.55 1.61 1.74 1.82 1.63 1.69 1.60 1.34 1.20 0.99 0.91 0.80 0.68 0.68 0.67 0.70 0.89 1.21 1.49 1.30 1.60 2.10 2.64 3.07 3.34 3.05 2.41 1.95 1.57 1.27 1.07 0.83 0.60 0.49 0.43 0.38 0.32
1.35 1.52 1.35 1.41 1.47 1.41 1.33 1.32 1.40 1.43 1.26 1.51 1.59 1.14 0.85 0.75 0.69 0.60 0.60 0.58 0.53 0.62 0.80 1.05 1.25 1.32 1.27 1.37 1.68 2.13 2.83 3.18 2.93 2.49 2.07 1.70 1.43 1.16 0.83 0.64 0.56 0.47 0.40
1.21 1.15 1.13 1.12 1.17 1.20 1.10 1.05 1.17 1.15 0.98 1.25 1.36 1.21 0.83 0.66 0.56 0.46 0.49 0.49 0.52 0.66 0.69 0.80 1.04 1.18 1.13 1.40 1.26 1.30 1.93 2.55 2.90 2.83 2.48 2.03 1.68 1.40 1.11 0.91 0.73 0.58 0.48
1.30 1.25 1.14 1.04 1.00 1.01 1.01 0.98 1.05 1.06 0.94 0.99 1.12 1.28 1.00 0.68 0.54 0.39 0.40 0.47 0.60 0.72 0.73 0.81 0.89 1.04 1.05 1.23 1.32 1.34 1.36 1.68 2.30 2.92 2.92 2.45 1.88 1.44 1.17 1.10 1.02 0.79 0.62
1.47 1.35 1.21 1.02 0.87 0.84 0.89 0.80 0.86 0.98 1.00 0.89 0.89 0.97 0.99 1.01 0.92 0.56 0.35 0.38 0.57 0.67 0.70 0.72 0.80 0.95 1.06 1.21 1.36 1.54 1.38 1.32 1.68 2.41 2.84 2.77 2.32 1.78 1.42 1.32 1.47 1.36 0.96
1.22 1.06 0.99 0.91 0.80 0.72 0.71 0.75 0.86 0.94 0.97 0.89 0.89 0.87 0.92 1.06 1.08 0.94 0.61 0.53 0.58 0.56 0.55 0.61 0.73 0.88 1.02 1.24 1.53 1.67 1.79 1.57 1.47 1.66 2.02 2.27 2.35 2.12 1.82 1.75 2.11 2.28 1.91
0.84 0.78 0.74 0.74 0.72 0.70 0.70 0.70 0.76 0.84 0.93 0.97 0.98 1.02 1.06 1.08 1.14 1.22 1.00 0.83 0.76 0.66 0.64 0.73 0.86 1.03 1.15 1.30 1.37 1.52 1.57 1.62 1.58 1.53 1.58 1.70 1.88 1.99 2.03 2.11 2.41 2.71 2.78
0.59 0.63 0.64 0.68 0.67 0.71 0.76 0.82 0.83 0.83 0.90 1.01 1.04 1.11 1.19 1.18 1.24 1.35 1.28 1.09 0.99 0.96 0.98 0.98 1.00 1.16 1.17 1.29 1.43 1.32 1.12 1.20 1.22 1.23 1.23 1.24 1.34 1.54 1.68 1.79 2.09 2.43 2.70
0.58 0.60 0.67 0.73 0.71 0.70 0.70 0.80 0.84 0.90 0.98 1.01 1.01 1.16 1.25 1.19 1.31 1.44 1.47 1.43 1.30 1.30 1.37 1.38 1.17 1.09 1.11 1.20 1.31 1.20 1.11 1.01 0.82 0.74 0.73 0.77 0.84 0.99 1.15 1.31 1.50 1.69 1.93
0.61 0.67 0.74 0.82 0.82 0.80 0.81 0.85 0.86 0.95 1.13 1.21 1.19 1.23 1.29 1.27 1.31 1.44 1.56 1.60 1.58 1.52 1.52 1.51 1.26 1.11 1.02 1.03 1.12 1.18 1.30 1.09 0.74 0.58 0.52 0.52 0.57 0.65 0.73 0.87 1.01 1.17 1.31
0.65 0.69 0.74 0.77 0.81 0.81 0.82 0.86 0.91 1.01 1.17 1.25 1.32 1.41 1.40 1.34 1.38 1.45 1.50 1.62 1.73 1.74 1.63 1.48 1.31 1.19 1.11 0.97 0.99 0.97 1.04 0.91 0.67 0.56 0.50 0.47 0.46 0.48 0.54 0.62 0.70 0.83 0.96
0.65 0.71 0.68 0.61 0.58 0.63 0.75 0.89 0.94 1.02 1.11 1.16 1.22 1.23 1.23 1.26 1.31 1.26 1.34 1.47 1.63 1.78 1.64 1.53 1.45 1.41 1.34 1.25 1.11 0.91 0.79 0.70 0.62 0.59 0.51 0.46 0.46 0.46 0.46 0.48 0.53 0.61 0.72
0.63 0.68 0.64 0.57 0.55 0.60 0.74 0.88 1.02 1.21 1.35 1.31 1.24 1.16 1.08 1.15 1.24 1.25 1.35 1.37 1.43 1.65 1.65 1.62 1.60 1.62 1.53 1.35 1.25 1.11 0.91 0.79 0.75 0.69 0.58 0.50 0.44 0.44 0.43 0.44 0.49 0.54 0.63
0.63 0.62 0.62 0.66 0.76 0.84 0.96 1.08 1.14 1.27 1.32 1.23 1.19 1.12 1.04 1.05 1.09 1.19 1.30 1.34 1.33 1.40 1.55 1.58 1.60 1.68 1.65 1.45 1.28 1.15 1.05 1.07 0.98 0.81 0.63 0.53 0.47 0.43 0.42 0.41 0.49 0.58 0.71
0.49 0.58 0.69 0.86 0.97 1.04 1.06 1.13 1.12 1.09 1.09 1.01 0.94 0.89 0.93 1.03 1.09 1.09 1.08 1.11 1.16 1.26 1.35 1.42 1.50 1.63 1.68 1.60 1.39 1.26 1.25 1.20 1.12 0.86 0.73 0.60 0.51 0.44 0.40 0.36 0.39 0.53 0.68
0.48 0.61 0.76 0.85 0.85 0.87 0.93 1.01 1.00 0.95 0.90 0.84 0.76 0.62 0.62 0.78 0.92 0.95 0.88 0.93 0.98 1.06 1.12 1.22 1.33 1.47 1.57 1.66 1.48 1.30 1.25 1.31 1.27 1.14 0.99 0.80 0.66 0.58 0.55 0.51 0.44 0.44 0.50
0.58 0.69 0.78 0.78 0.73 0.57 0.51 0.52 0.58 0.64 0.70 0.71 0.63 0.58 0.56 0.56 0.58 0.60 0.64 0.69 0.77 0.86 0.99 1.15 1.27 1.34 1.38 1.48 1.57 1.53 1.47 1.42 1.42 1.39 1.39 1.31 1.04 0.94 0.90 0.84 0.67 0.46 0.37
0.65 0.71 0.72 0.73 0.71 0.66 0.48 0.37 0.36 0.44 0.51 0.54 0.55 0.59 0.48 0.41 0.44 0.44 0.44 0.42 0.44 0.49 0.63 0.86 1.09 1.18 1.29 1.33 1.55 1.60 1.62 1.72 1.72 1.71 1.68 1.73 1.46 1.19 1.01 0.93 0.83 0.60 0.45
0.76 0.78 0.75 0.75 0.80 0.76 0.61 0.48 0.40 0.37 0.44 0.48 0.50 0.54 0.55 0.54 0.53 0.54 0.52 0.48 0.43 0.40 0.42 0.49 0.71 0.96 1.18 1.41 1.50 1.57 1.65 1.71 1.73 1.62 1.56 1.67 1.60 1.47 1.24 0.94 0.83 0.73 0.61
0.96 0.94 0.93 0.94 0.95 0.94 0.77 0.56 0.46 0.48 0.57 0.56 0.57 0.57 0.58 0.59 0.56 0.44 0.45 0.48 0.48 0.49 0.41 0.41 0.50 0.72 0.92 1.03 1.26 1.46 1.59 1.51 1.45 1.27 1.13 1.23 1.34 1.40 1.44 1.27 0.97 0.87 0.75
1.16 1.08 1.02 1.01 1.01 1.04 0.95 0.62 0.48 0.56 0.73 0.76 0.78 0.72 0.59 0.52 0.47 0.37 0.41 0.53 0.51 0.51 0.56 0.51 0.44 0.50 0.64 0.78 0.85 0.97 1.19 1.31 1.20 1.14 0.97 0.88 0.89 1.01 1.14 1.09 0.94 0.89 0.89

GEFSMA_prec_meanprecacc_132.txt.gz
Total_Precipitation_Accumulation
1.80 1.86 1.82 1.74 1.66 2.02 2.42 2.57 2.34 2.58 2.61 2.24 1.93 1.78 1.68 1.66 1.82 2.00 1.95 2.16 2.11 2.07 2.27 2.35 2.18 1.93 1.74 1.44 1.23 1.07 0.93 0.88 0.81 0.64 0.51 0.44 0.41 0.39 0.39 0.40 0.40 0.36 0.33
2.28 2.33 2.18 2.05 1.85 1.90 2.17 2.37 2.38 2.59 2.47 2.35 1.78 1.69 1.63 1.71 1.84 1.89 1.92 2.40 2.37 2.16 2.15 2.28 2.34 2.21 2.05 1.91 1.63 1.36 1.14 1.04 0.94 0.73 0.58 0.51 0.47 0.43 0.41 0.43 0.47 0.42 0.31
2.72 2.61 2.35 2.05 1.95 2.00 2.09 2.08 2.11 2.21 2.07 2.00 1.78 1.85 1.79 1.65 1.52 1.55 1.71 1.95 1.94 1.80 1.77 1.86 2.05 2.22 2.37 2.37 2.18 1.99 1.58 1.24 1.05 0.83 0.65 0.52 0.45 0.40 0.40 0.41 0.46 0.45 0.34
2.58 2.51 2.20 1.86 1.91 1.99 1.98 1.95 1.84 1.91 1.89 1.94 1.92 1.79 1.84 1.69 1.38 1.34 1.43 1.42 1.51 1.42 1.55 1.63 1.72 1.93 2.37 2.70 2.80 2.69 2.29 1.67 1.24 1.00 0.81 0.64 0.51 0.42 0.37 0.39 0.44 0.43 0.34
2.30 2.39 2.10 1.91 1.88 1.83 1.72 1.63 1.82 1.96 1.90 1.91 1.83 1.69 1.49 1.33 1.11 0.98 0.98 0.93 1.07 1.24 1.40 1.48 1.51 1.62 2.10 2.72 3.20 3.36 3.10 2.40 1.76 1.34 1.12 0.95 0.77 0.59 0.45 0.42 0.41 0.37 0.31
1.91 1.98 1.78 1.68 1.76 1.76 1.62 1.66 1.81 1.88 1.67 1.73 1.63 1.39 1.22 1.00 0.93 0.82 0.71 0.70 0.69 0.71 0.92 1.25 1.53 1.33 1.62 2.14 2.69 3.13 3.41 3.09 2.45 1.97 1.59 1.30 1.10 0.86 0.61 0.51 0.45 0.40 0.34
1.40 1.57 1.40 1.48 1.54 1.49 1.40 1.38 1.45 1.48 1.30 1.53 1.63 1.21 0.90 0.78 0.71 0.62 0.62 0.62 0.56 0.64 0.83 1.09 1.30 1.37 1.31 1.39 1.70 2.15 2.88 3.24 2.98 2.52 2.11 1.74 1.46 1.19 0.85 0.66 0.58 0.49 0.43
1.27 1.19 1.21 1.18 1.24 1.28 1.17 1.12 1.23 1.22 1.04 1.29 1.39 1.27 0.90 0.74 0.63 0.48 0.50 0.50 0.54 0.68 0.72 0.82 1.07 1.23 1.17 1.44 1.29 1.32 1.95 2.58 2.94 2.87 2.51 2.06 1.72 1.43 1.14 0.94 0.75 0.60 0.51
1.38 1.30 1.20 1.09 1.06 1.05 1.06 1.03 1.10 1.11 0.99 1.02 1.13 1.30 1.05 0.76 0.62 0.43 0.42 0.48 0.63 0.76 0.76 0.84 0.91 1.07 1.08 1.27 1.36 1.35 1.37 1.70 2.32 2.95 2.96 2.48 1.91 1.45 1.18 1.12 1.04 0.82 0.64
1.57 1.40 1.25 1.06 0.91 0.87 0.93 0.82 0.89 1.01 1.03 0.92 0.91 0.98 1.01 1.06 0.98 0.65 0.41 0.39 0.58 0.69 0.71 0.73 0.81 0.98 1.10 1.26 1.39 1.55 1.38 1.32 1.69 2.42 2.86 2.79 2.34 1.80 1.43 1.34 1.49 1.39 0.99
1.35 1.14 1.03 0.94 0.84 0.77 0.75 0.78 0.89 0.96 0.98 0.91 0.90 0.88 0.93 1.08 1.10 0.98 0.68 0.58 0.61 0.57 0.55 0.62 0.75 0.89 1.03 1.26 1.55 1.68 1.79 1.57 1.48 1.66 2.03 2.28 2.36 2.13 1.83 1.77 2.12 2.31 1.94
0.95 0.87 0.80 0.79 0.76 0.74 0.74 0.73 0.78 0.86 0.94 0.99 1.00 1.03 1.08 1.09 1.15 1.24 1.04 0.87 0.80 0.68 0.64 0.74 0.86 1.04 1.16 1.30 1.37 1.52 1.57 1.62 1.58 1.53 1.58 1.70 1.88 2.00 2.03 2.12 2.42 2.73 2.80
0.66 0.69 0.70 0.73 0.71 0.75 0.79 0.85 0.85 0.84 0.92 1.03 1.05 1.13 1.20 1.19 1.25 1.35 1.29 1.10 1.01 0.98 0.99 0.98 1.00 1.16 1.17 1.29 1.43 1.32 1.12 1.20 1.22 1.23 1.23 1.24 1.34 1.55 1.69 1.79 2.09 2.43 2.71
0.65 0.66 0.72 0.78 0.75 0.73 0.73 0.83 0.86 0.92 0.99 1.03 1.01 1.17 1.26 1.19 1.31 1.44 1.47 1.44 1.31 1.31 1.37 1.38 1.17 1.09 1.11 1.20 1.31 1.20 1.11 1.01 0.82 0.74 0.73 0.77 0.84 0.99 1.15 1.31 1.50 1.69 1.94
0.68 0.73 0.79 0.86 0.85 0.84 0.85 0.89 0.88 0.97 1.15 1.22 1.20 1.24 1.29 1.27 1.31 1.44 1.56 1.60 1.59 1.53 1.53 1.52 1.26 1.11 1.02 1.04 1.13 1.18 1.30 1.09 0.74 0.58 0.52 0.52 0.57 0.65 0.73 0.87 1.01 1.17 1.31
0.73 0.75 0.79 0.81 0.85 0.85 0.86 0.90 0.94 1.03 1.20 1.27 1.34 1.42 1.41 1.34 1.39 1.45 1.50 1.62 1.73 1.75 1.64 1.49 1.31 1.19 1.12 0.97 0.99 0.97 1.04 0.91 0.67 0.56 0.50 0.47 0.46 0.48 0.54 0.62 0.70 0.83 0.96
0.75 0.78 0.73 0.66 0.62 0.66 0.79 0.93 0.97 1.05 1.14 1.19 1.25 1.25 1.24 1.26 1.31 1.26 1.34 1.47 1.64 1.78 1.65 1.53 1.45 1.41 1.34 1.25 1.11 0.91 0.79 0.70 0.62 0.59 0.51 0.46 0.46 0.46 0.46 0.48 0.53 0.61 0.72
0.71 0.75 0.70 0.63 0.59 0.65 0.79 0.93 1.06 1.26 1.39 1.35 1.27 1.19 1.11 1.17 1.27 1.27 1.35 1.37 1.44 1.66 1.65 1.62 1.61 1.62 1.53 1.36 1.26 1.12 0.91 0.79 0.75 0.69 0.58 0.50 0.44 0.44 0.43 0.44 0.49 0.54 0.63
0.71 0.71 0.71 0.73 0.82 0.90 1.01 1.12 1.18 1.31 1.36 1.27 1.23 1.16 1.08 1.09 1.13 1.22 1.32 1.35 1.34 1.41 1.56 1.59 1.61 1.69 1.66 1.46 1.30 1.17 1.06 1.08 0.98 0.81 0.63 0.53 0.47 0.43 0.42 0.41 0.49 0.58 0.71
0.58 0.66 0.79 0.95 1.06 1.12 1.14 1.19 1.17 1.14 1.13 1.05 0.99 0.94 0.98 1.09 1.15 1.15 1.13 1.16 1.19 1.29 1.38 1.45 1.52 1.65 1.71 1.63 1.42 1.30 1.28 1.23 1.13 0.86 0.73 0.60 0.51 0.44 0.40 0.36 0.39 0.53 0.68
0.58 0.71 0.86 0.95 0.95 0.96 1.01 1.08 1.05 1.00 0.94 0.88 0.81 0.67 0.67 0.85 0.98 1.01 0.93 0.97 1.03 1.11 1.16 1.26 1.37 1.52 1.62 1.72 1.54 1.34 1.28 1.34 1.29 1.15 0.99 0.80 0.66 0.58 0.55 0.51 0.44 0.44 0.50
0.67 0.80 0.87 0.87 0.81 0.64 0.59 0.60 0.64 0.70 0.75 0.76 0.68 0.63 0.61 0.61 0.62 0.64 0.67 0.72 0.80 0.89 1.03 1.20 1.32 1.40 1.44 1.55 1.64 1.59 1.52 1.48 1.46 1.41 1.42 1.32 1.05 0.95 0.91 0.85 0.68 0.46 0.37
0.75 0.81 0.80 0.80 0.77 0.73 0.57 0.44 0.41 0.48 0.56 0.58 0.60 0.64 0.52 0.44 0.48 0.48 0.49 0.47 0.48 0.53 0.66 0.90 1.13 1.22 1.35 1.39 1.62 1.67 1.69 1.78 1.77 1.74 1.73 1.76 1.47 1.20 1.03 0.95 0.85 0.60 0.45
0.89 0.89 0.84 0.83 0.87 0.83 0.69 0.55 0.45 0.40 0.48 0.51 0.55 0.60 0.61 0.59 0.58 0.60 0.58 0.55 0.49 0.46 0.47 0.54 0.76 1.01 1.22 1.46 1.55 1.61 1.69 1.76 1.76 1.64 1.61 1.71 1.61 1.48 1.24 0.95 0.84 0.75 0.62
1.09 1.06 1.05 1.04 1.04 1.02 0.85 0.60 0.50 0.51 0.61 0.61 0.62 0.63 0.65 0.66 0.64 0.53 0.54 0.55 0.56 0.56 0.45 0.45 0.54 0.75 0.94 1.05 1.28 1.49 1.61 1.55 1.48 1.31 1.18 1.28 1.37 1.42 1.45 1.28 0.98 0.89 0.76
1.29 1.20 1.13 1.11 1.10 1.14 1.04 0.69 0.53 0.60 0.78 0.82 0.84 0.77 0.64 0.58 0.55 0.46 0.49 0.61 0.59 0.58 0.63 0.58 0.50 0.54 0.67 0.80 0.87 0.99 1.22 1.35 1.24 1.18 1.01 0.94 0.93 1.05 1.17 1.10 0.94 0.90 0.90

GEFSMA_prec_meanprecacc_138.txt.gz
Total_Precipitation_Accumulation
1.82 1.88 1.83 1.75 1.68 2.03 2.43 2.58 2.37 2.62 2.67 2.29 1.99 1.87 1.79 1.76 1.94 2.12 2.03 2.21 2.15 2.10 2.30 2.37 2.20 1.94 1.75 1.45 1.24 1.08 0.93 0.89 0.82 0.65 0.52 0.46 0.41 0.40 0.39 0.40 0.41 0.37 0.33
2.30 2.35 2.20 2.06 1.87 1.91 2.19 2.39 2.41 2.62 2.51 2.40 1.84 1.76 1.70 1.79 1.93 1.95 1.98 2.45 2.42 2.20 2.19 2.30 2.35 2.23 2.06 1.92 1.64 1.37 1.15 1.05 0.95 0.73 0.59 0.52 0.48 0.43 0.41 0.43 0.48 0.43 0.32
2.73 2.62 2.36 2.06 1.96 2.02 2.12 2.10 2.14 2.25 2.10 2.03 1.82 1.90 1.84 1.72 1.62 1.61 1.74 1.98 1.96 1.83 1.81 1.89 2.09 2.27 2.41 2.40 2.22 2.03 1.62 1.26 1.06 0.84 0.66 0.54 0.46 0.41 0.40 0.42 0.48 0.47 0.36
2.61 2.53 2.21 1.87 1.93 2.01 2.00 1.97 1.87 1.94 1.92 1.97 1.95 1.82 1.88 1.75 1.44 1.38 1.45 1.44 1.52 1.43 1.57 1.67 1.76 1.98 2.43 2.76 2.85 2.73 2.31 1.70 1.27 1.02 0.83 0.65 0.53 0.42 0.38 0.39 0.44 0.44 0.35
2.34 2.42 2.11 1.93 1.89 1.85 1.75 1.67 1.85 2.00 1.93 1.93 1.86 1.71 1.53 1.38 1.16 1.02 1.01 0.94 1.08 1.24 1.41 1.50 1.55 1.67 2.14 2.76 3.26 3.42 3.15 2.44 1.80 1.36 1.15 0.97 0.79 0.60 0.46 0.43 0.42 0.37 0.32
1.96 2.02 1.82 1.71 1.78 1.78 1.64 1.70 1.85 1.91 1.69 1.75 1.66 1.42 1.25 1.05 0.97 0.86 0.75 0.75 0.72 0.73 0.94 1.27 1.54 1.35 1.66 2.19 2.75 3.20 3.47 3.14 2.48 2.00 1.61 1.31 1.12 0.87 0.62 0.52 0.47 0.41 0.35
1.46 1.62 1.46 1.53 1.57 1.52 1.42 1.40 1.47 1.49 1.30 1.55 1.65 1.24 0.93 0.81 0.76 0.67 0.67 0.68 0.64 0.69 0.87 1.12 1.32 1.39 1.33 1.41 1.73 2.20 2.94 3.30 3.02 2.55 2.13 1.76 1.48 1.22 0.87 0.67 0.59 0.50 0.45
1.35 1.24 1.27 1.23 1.27 1.31 1.19 1.13 1.25 1.23 1.04 1.29 1.40 1.28 0.92 0.77 0.67 0.53 0.55 0.54 0.61 0.74 0.77 0.86 1.10 1.24 1.18 1.45 1.29 1.33 1.99 2.63 2.99 2.91 2.55 2.11 1.75 1.46 1.17 0.95 0.77 0.62 0.52
1.46 1.38 1.28 1.15 1.09 1.08 1.09 1.04 1.11 1.11 0.99 1.02 1.13 1.30 1.05 0.77 0.62 0.46 0.46 0.52 0.66 0.79 0.79 0.88 0.94 1.08 1.09 1.28 1.37 1.36 1.38 1.72 2.36 3.00 3.01 2.52 1.94 1.49 1.22 1.15 1.07 0.84 0.65
1.66 1.49 1.34 1.14 0.96 0.91 0.96 0.84 0.90 1.02 1.04 0.93 0.91 0.98 1.01 1.06 0.98 0.67 0.45 0.42 0.62 0.72 0.72 0.74 0.82 0.99 1.10 1.26 1.40 1.56 1.39 1.33 1.70 2.45 2.89 2.82 2.36 1.82 1.45 1.36 1.52 1.43 1.02
1.47 1.25 1.12 1.02 0.88 0.80 0.78 0.80 0.90 0.96 0.99 0.92 0.90 0.88 0.94 1.08 1.10 0.98 0.69 0.59 0.62 0.59 0.56 0.62 0.75 0.90 1.04 1.26 1.55 1.68 1.80 1.58 1.48 1.67 2.04 2.29 2.37 2.14 1.84 1.78 2.14 2.33 1.97
1.08 1.00 0.91 0.87 0.82 0.79 0.77 0.74 0.79 0.87 0.95 1.00 1.01 1.04 1.08 1.09 1.15 1.24 1.04 0.87 0.81 0.69 0.65 0.74 0.86 1.04 1.16 1.30 1.38 1.53 1.58 1.63 1.58 1.53 1.58 1.70 1.89 2.00 2.04 2.12 2.43 2.73 2.82
0.75 0.77 0.78 0.80 0.76 0.79 0.82 0.87 0.86 0.86 0.92 1.03 1.05 1.13 1.20 1.19 1.25 1.35 1.29 1.10 1.01 0.98 0.99 0.98 1.00 1.17 1.17 1.29 1.43 1.32 1.12 1.20 1.22 1.23 1.23 1.24 1.34 1.55 1.69 1.80 2.10 2.44 2.72
0.71 0.70 0.78 0.82 0.78 0.76 0.75 0.85 0.88 0.93 1.00 1.03 1.01 1.17 1.26 1.19 1.31 1.44 1.47 1.44 1.31 1.31 1.38 1.38 1.17 1.09 1.11 1.20 1.31 1.20 1.11 1.01 0.82 0.74 0.73 0.77 0.84 0.99 1.15 1.31 1.50 1.69 1.94
0.73 0.78 0.83 0.88 0.87 0.86 0.87 0.91 0.90 0.98 1.16 1.23 1.20 1.24 1.29 1.27 1.31 1.44 1.56 1.60 1.59 1.53 1.53 1.52 1.26 1.11 1.02 1.04 1.13 1.18 1.30 1.09 0.74 0.58 0.52 0.52 0.57 0.65 0.73 0.87 1.01 1.17 1.31
0.80 0.81 0.83 0.85 0.89 0.88 0.88 0.93 0.96 1.05 1.21 1.27 1.35 1.43 1.41 1.34 1.39 1.45 1.51 1.62 1.73 1.75 1.64 1.49 1.31 1.19 1.12 0.97 0.99 0.97 1.04 0.91 0.67 0.56 0.50 0.47 0.46 0.48 0.54 0.62 0.70 0.83 0.96
0.82 0.85 0.80 0.72 0.66 0.69 0.81 0.96 1.00 1.07 1.15 1.20 1.25 1.26 1.25 1.27 1.32 1.26 1.35 1.48 1.64 1.79 1.65 1.54 1.46 1.41 1.34 1.25 1.11 0.91 0.79 0.70 0.63 0.59 0.51 0.46 0.46 0.46 0.46 0.48 0.53 0.61 0.72
0.81 0.84 0.77 0.69 0.65 0.69 0.82 0.96 1.08 1.28 1.41 1.36 1.28 1.20 1.12 1.19 1.28 1.28 1.37 1.38 1.45 1.67 1.67 1.63 1.61 1.63 1.54 1.36 1.26 1.12 0.91 0.79 0.75 0.69 0.58 0.50 0.44 0.44 0.43 0.44 0.49 0.54 0.63
0.82 0.81 0.79 0.79 0.87 0.95 1.06 1.16 1.21 1.35 1.38 1.29 1.25 1.18 1.12 1.14 1.17 1.25 1.35 1.38 1.36 1.43 1.58 1.60 1.61 1.70 1.68 1.48 1.31 1.18 1.07 1.08 0.99 0.81 0.63 0.54 0.47 0.44 0.43 0.41 0.49 0.58 0.71
0.71 0.78 0.91 1.07 1.17 1.23 1.26 1.29 1.26 1.21 1.18 1.09 1.03 0.98 1.02 1.13 1.19 1.19 1.17 1.19 1.23 1.33 1.42 1.47 1.54 1.66 1.72 1.65 1.45 1.32 1.29 1.24 1.14 0.87 0.74 0.61 0.52 0.45 0.41 0.37 0.40 0.53 0.68
0.72 0.87 1.02 1.11 1.10 1.12 1.19 1.26 1.24 1.12 1.04 0.95 0.87 0.73 0.73 0.90 1.03 1.07 0.99 1.03 1.09 1.17 1.20 1.29 1.38 1.53 1.63 1.73 1.55 1.36 1.30 1.36 1.30 1.15 1.00 0.81 0.68 0.59 0.56 0.52 0.45 0.45 0.50
0.79 0.94 1.02 1.02 0.97 0.78 0.75 0.81 0.84 0.86 0.88 0.85 0.76 0.71 0.69 0.70 0.71 0.72 0.74 0.78 0.85 0.94 1.06 1.23 1.34 1.41 1.45 1.56 1.66 1.61 1.54 1.50 1.47 1.42 1.44 1.34 1.06 0.97 0.92 0.87 0.70 0.49 0.39
0.86 0.92 0.93 0.92 0.89 0.86 0.72 0.60 0.56 0.62 0.68 0.70 0.70 0.74 0.60 0.52 0.57 0.56 0.58 0.56 0.55 0.58 0.71 0.94 1.16 1.24 1.37 1.41 1.65 1.69 1.72 1.80 1.79 1.76 1.75 1.77 1.48 1.21 1.04 0.96 0.87 0.63 0.48
0.96 1.00 0.97 0.94 0.98 0.94 0.81 0.66 0.56 0.50 0.58 0.64 0.67 0.71 0.70 0.67 0.66 0.69 0.67 0.61 0.54 0.50 0.52 0.59 0.79 1.03 1.25 1.49 1.59 1.66 1.74 1.80 1.80 1.67 1.64 1.73 1.63 1.50 1.25 0.95 0.85 0.75 0.63
1.17 1.17 1.18 1.16 1.17 1.15 0.97 0.71 0.59 0.57 0.67 0.69 0.70 0.71 0.72 0.71 0.71 0.62 0.62 0.62 0.61 0.61 0.51 0.51 0.59 0.80 0.98 1.08 1.31 1.52 1.66 1.59 1.52 1.34 1.21 1.31 1.39 1.44 1.46 1.29 0.98 0.89 0.77
1.41 1.33 1.26 1.23 1.22 1.26 1.17 0.81 0.65 0.69 0.85 0.88 0.90 0.83 0.69 0.62 0.59 0.51 0.53 0.66 0.63 0.62 0.67 0.62 0.53 0.58 0.70 0.84 0.92 1.03 1.26 1.40 1.30 1.23 1.05 0.98 0.96 1.07 1.19 1.10 0.95 0.90 0.91

GEFSMA_prec_meanprecacc_144.txt.gz
Total_Precipitation_Accumulation
1.82 1.88 1.84 1.75 1.68 2.03 2.43 2.59 2.39 2.65 2.70 2.32 2.02 1.90 1.82 1.79 1.96 2.13 2.04 2.25 2.18 2.13 2.33 2.40 2.22 1.97 1.78 1.49 1.27 1.11 0.96 0.91 0.84 0.68 0.56 0.49 0.43 0.40 0.40 0.41 0.41 0.37 0.34
2.30 2.35 2.21 2.06 1.87 1.92 2.19 2.40 2.43 2.65 2.55 2.43 1.87 1.78 1.72 1.82 1.95 1.97 2.00 2.48 2.47 2.25 2.23 2.35 2.40 2.28 2.12 1.99 1.69 1.41 1.19 1.08 0.98 0.76 0.62 0.55 0.51 0.45 0.43 0.45 0.49 0.45 0.33
2.76 2.64 2.37 2.07 1.97 2.03 2.13 2.12 2.16 2.28 2.14 2.07 1.85 1.93 1.86 1.74 1.64 1.64 1.77 2.00 1.99 1.87 1.86 1.95 2.16 2.36 2.51 2.50 2.30 2.10 1.68 1.31 1.10 0.87 0.68 0.56 0.48 0.43 0.42 0.43 0.49 0.49 0.38
2.64 2.55 2.22 1.88 1.93 2.02 2.02 1.99 1.89 1.97 1.95 2.00 1.98 1.85 1.92 1.78 1.45 1.41 1.47 1.45 1.53 1.45 1.61 1.72 1.82 2.05 2.50 2.85 2.94 2.82 2.41 1.77 1.31 1.05 0.85 0.68 0.55 0.45 0.40 0.41 0.46 0.45 0.36
2.39 2.46 2.14 1.95 1.90 1.87 1.77 1.68 1.87 2.01 1.95 1.96 1.88 1.73 1.57 1.43 1.19 1.03 1.02 0.96 1.09 1.25 1.42 1.52 1.61 1.72 2.20 2.86 3.38 3.56 3.26 2.52 1.85 1.41 1.18 1.00 0.82 0.63 0.48 0.45 0.43 0.39 0.32
2.01 2.09 1.88 1.75 1.82 1.82 1.68 1.71 1.85 1.92 1.72 1.79 1.69 1.44 1.28 1.09 1.00 0.88 0.76 0.76 0.73 0.73 0.94 1.28 1.56 1.37 1.71 2.28 2.86 3.32 3.57 3.23 2.55 2.05 1.65 1.34 1.15 0.91 0.65 0.54 0.48 0.43 0.36
1.55 1.72 1.52 1.57 1.60 1.55 1.45 1.43 1.49 1.51 1.33 1.58 1.68 1.26 0.94 0.83 0.78 0.69 0.69 0.70 0.65 0.70 0.88 1.14 1.34 1.41 1.36 1.45 1.78 2.27 3.05 3.41 3.11 2.61 2.19 1.80 1.52 1.25 0.90 0.70 0.62 0.52 0.46
1.45 1.34 1.35 1.28 1.31 1.34 1.22 1.16 1.27 1.26 1.08 1.31 1.42 1.30 0.93 0.78 0.68 0.54 0.57 0.56 0.63 0.77 0.79 0.88 1.12 1.26 1.20 1.47 1.31 1.37 2.04 2.71 3.08 2.99 2.62 2.16 1.80 1.50 1.21 0.99 0.80 0.64 0.54
1.54 1.45 1.34 1.20 1.14 1.12 1.11 1.06 1.13 1.14 1.02 1.04 1.14 1.31 1.06 0.77 0.63 0.46 0.46 0.53 0.68 0.81 0.80 0.90 0.96 1.10 1.11 1.29 1.38 1.37 1.41 1.76 2.42 3.07 3.08 2.57 1.99 1.53 1.25 1.19 1.11 0.88 0.69
1.74 1.56 1.41 1.20 1.02 0.95 0.99 0.87 0.92 1.04 1.06 0.94 0.92 0.98 1.01 1.06 0.98 0.67 0.45 0.43 0.63 0.72 0.73 0.74 0.83 0.99 1.11 1.27 1.40 1.57 1.40 1.35 1.73 2.49 2.95 2.88 2.41 1.85 1.48 1.40 1.56 1.47 1.06
1.54 1.33 1.19 1.08 0.93 0.83 0.81 0.82 0.91 0.98 1.00 0.93 0.91 0.89 0.94 1.08 1.10 0.98 0.69 0.59 0.63 0.59 0.57 0.62 0.75 0.91 1.04 1.27 1.56 1.69 1.81 1.58 1.49 1.69 2.07 2.32 2.41 2.17 1.86 1.80 2.16 2.35 2.00
1.15 1.07 0.96 0.91 0.86 0.82 0.80 0.76 0.80 0.89 0.97 1.00 1.01 1.04 1.08 1.09 1.15 1.24 1.04 0.87 0.81 0.69 0.65 0.74 0.87 1.05 1.17 1.31 1.38 1.53 1.59 1.63 1.58 1.53 1.59 1.71 1.90 2.02 2.05 2.13 2.44 2.75 2.84
0.80 0.85 0.85 0.85 0.81 0.84 0.86 0.90 0.89 0.87 0.94 1.04 1.06 1.13 1.20 1.19 1.25 1.35 1.29 1.10 1.01 0.98 0.99 0.98 1.00 1.17 1.17 1.29 1.43 1.32 1.12 1.20 1.23 1.23 1.24 1.24 1.34 1.55 1.69 1.80 2.11 2.45 2.73
0.74 0.76 0.87 0.90 0.84 0.81 0.79 0.88 0.91 0.95 1.01 1.04 1.02 1.18 1.26 1.20 1.31 1.44 1.47 1.44 1.31 1.31 1.38 1.38 1.17 1.09 1.11 1.20 1.31 1.20 1.11 1.02 0.82 0.74 0.73 0.77 0.84 0.99 1.15 1.32 1.50 1.69 1.94
0.79 0.84 0.90 0.95 0.93 0.91 0.90 0.93 0.92 1.00 1.17 1.23 1.21 1.25 1.30 1.27 1.32 1.44 1.56 1.60 1.59 1.54 1.54 1.52 1.26 1.11 1.02 1.04 1.13 1.18 1.30 1.09 0.74 0.58 0.52 0.52 0.57 0.65 0.73 0.87 1.01 1.17 1.31
0.85 0.87 0.89 0.90 0.94 0.93 0.91 0.96 0.99 1.07 1.22 1.29 1.36 1.44 1.42 1.34 1.39 1.45 1.51 1.62 1.74 1.76 1.65 1.49 1.31 1.19 1.12 0.97 0.99 0.97 1.04 0.91 0.68 0.57 0.51 0.47 0.46 0.48 0.54 0.62 0.70 0.83 0.96
0.86 0.89 0.84 0.77 0.72 0.74 0.86 1.00 1.04 1.11 1.18 1.22 1.28 1.28 1.26 1.27 1.32 1.26 1.35 1.48 1.65 1.79 1.66 1.54 1.46 1.41 1.34 1.25 1.11 0.91 0.80 0.71 0.63 0.59 0.52 0.47 0.46 0.47 0.46 0.48 0.53 0.61 0.72
0.86 0.88 0.82 0.74 0.70 0.76 0.89 1.01 1.13 1.33 1.46 1.40 1.31 1.23 1.14 1.21 1.30 1.30 1.38 1.39 1.46 1.68 1.67 1.63 1.61 1.63 1.54 1.36 1.26 1.12 0.92 0.79 0.75 0.69 0.59 0.51 0.45 0.45 0.44 0.44 0.49 0.54 0.63
0.88 0.87 0.85 0.86 0.94 1.02 1.13 1.23 1.28 1.41 1.44 1.34 1.29 1.22 1.15 1.18 1.20 1.28 1.37 1.39 1.38 1.44 1.59 1.61 1.62 1.70 1.68 1.48 1.32 1.18 1.07 1.09 0.99 0.82 0.65 0.55 0.48 0.44 0.43 0.42 0.49 0.58 0.71
0.78 0.84 0.99 1.17 1.27 1.32 1.35 1.39 1.37 1.33 1.29 1.19 1.11 1.05 1.08 1.18 1.22 1.23 1.20 1.22 1.26 1.35 1.44 1.48 1.54 1.66 1.72 1.65 1.45 1.32 1.30 1.25 1.15 0.88 0.75 0.62 0.53 0.45 0.41 0.38 0.40 0.53 0.68
0.81 0.95 1.11 1.21 1.21 1.23 1.30 1.37 1.37 1.30 1.21 1.10 0.98 0.82 0.79 0.95 1.09 1.13 1.06 1.08 1.13 1.20 1.23 1.31 1.40 1.54 1.64 1.74 1.56 1.37 1.31 1.36 1.31 1.16 1.01 0.82 0.69 0.60 0.57 0.53 0.45 0.46 0.51
0.90 1.05 1.12 1.14 1.09 0.88 0.86 0.93 0.97 0.99 1.01 0.96 0.85 0.78 0.76 0.76 0.78 0.80 0.83 0.87 0.93 1.01 1.14 1.30 1.39 1.45 1.47 1.58 1.67 1.62 1.55 1.51 1.48 1.43 1.45 1.35 1.07 0.98 0.93 0.88 0.71 0.50 0.41
0.96 1.04 1.06 1.05 1.02 0.97 0.85 0.73 0.72 0.76 0.79 0.79 0.78 0.81 0.67 0.58 0.63 0.64 0.68 0.68 0.66 0.69 0.80 1.02 1.22 1.28 1.40 1.45 1.68 1.71 1.73 1.82 1.81 1.78 1.78 1.80 1.50 1.24 1.06 0.99 0.90 0.66 0.51
1.08 1.11 1.08 1.05 1.08 1.05 0.92 0.77 0.67 0.61 0.69 0.74 0.75 0.78 0.77 0.73 0.73 0.77 0.77 0.72 0.63 0.59 0.59 0.65 0.84 1.07 1.29 1.52 1.62 1.69 1.78 1.84 1.83 1.70 1.68 1.77 1.66 1.53 1.28 0.99 0.89 0.79 0.66
1.30 1.28 1.28 1.26 1.28 1.27 1.08 0.80 0.68 0.67 0.78 0.79 0.79 0.79 0.80 0.79 0.79 0.69 0.68 0.67 0.67 0.67 0.56 0.56 0.63 0.83 1.02 1.12 1.35 1.56 1.69 1.63 1.55 1.36 1.23 1.34 1.41 1.47 1.49 1.32 1.02 0.93 0.80
1.55 1.48 1.38 1.35 1.33 1.36 1.28 0.93 0.76 0.79 0.95 0.98 0.99 0.92 0.78 0.70 0.66 0.56 0.58 0.70 0.68 0.67 0.72 0.66 0.57 0.62 0.74 0.87 0.96 1.08 1.31 1.45 1.34 1.27 1.08 1.03 1.01 1.13 1.26 1.18 1.01 0.96 0.96

GEFSMA_prec_meanprecacc_150.txt.gz
Total_Precipitation_Accumulation
1.83 1.89 1.85 1.78 1.71 2.07 2.47 2.64 2.41 2.68 2.71 2.33 2.04 1.93 1.86 1.81 1.98 2.17 2.08 2.28 2.22 2.18 2.38 2.45 2.26 2.01 1.82 1.53 1.31 1.13 0.98 0.93 0.86 0.70 0.58 0.54 0.47 0.42 0.42 0.43 0.42 0.38 0.35
2.31 2.36 2.22 2.09 1.90 1.95 2.24 2.45 2.46 2.69 2.58 2.46 1.89 1.80 1.75 1.85 1.99 2.02 2.05 2.54 2.51 2.30 2.30 2.42 2.46 2.32 2.15 2.03 1.72 1.44 1.21 1.10 1.00 0.78 0.63 0.58 0.53 0.47 0.44 0.46 0.51 0.46 0.35
2.78 2.67 2.40 2.10 2.01 2.08 2.19 2.19 2.23 2.33 2.19 2.11 1.90 1.97 1.93 1.81 1.70 1.70 1.83 2.09 2.06 1.91 1.90 2.01 2.22 2.41 2.56 2.56 2.35 2.15 1.72 1.35 1.14 0.89 0.70 0.58 0.50 0.45 0.43 0.45 0.51 0.50 0.39
2.68 2.60 2.26 1.92 1.97 2.08 2.08 2.06 1.96 2.03 2.01 2.08 2.07 1.94 2.00 1.88 1.53 1.47 1.54 1.52 1.60 1.49 1.65 1.76 1.87 2.08 2.55 2.93 3.02 2.88 2.46 1.82 1.36 1.08 0.87 0.69 0.57 0.47 0.42 0.43 0.48 0.47 0.37
2.43 2.51 2.19 2.00 1.95 1.94 1.84 1.73 1.93 2.06 2.02 2.06 1.96 1.82 1.64 1.49 1.25 1.10 1.08 1.00 1.13 1.29 1.46 1.56 1.63 1.74 2.23 2.92 3.47 3.64 3.32 2.56 1.89 1.44 1.21 1.02 0.84 0.64 0.50 0.46 0.45 0.40 0.34
2.06 2.16 1.93 1.81 1.89 1.90 1.76 1.79 1.94 1.98 1.79 1.87 1.74 1.51 1.34 1.13 1.04 0.94 0.82 0.80 0.77 0.75 0.95 1.29 1.59 1.40 1.73 2.32 2.93 3.38 3.62 3.27 2.59 2.09 1.69 1.37 1.17 0.93 0.67 0.56 0.49 0.44 0.37
1.61 1.79 1.62 1.66 1.69 1.65 1.53 1.50 1.56 1.58 1.39 1.65 1.78 1.35 0.99 0.87 0.81 0.73 0.73 0.76 0.69 0.73 0.91 1.17 1.38 1.47 1.40 1.47 1.80 2.30 3.08 3.45 3.16 2.66 2.22 1.83 1.55 1.28 0.93 0.73 0.63 0.53 0.48
1.52 1.41 1.45 1.38 1.40 1.45 1.32 1.23 1.35 1.33 1.14 1.38 1.50 1.38 1.00 0.83 0.72 0.56 0.61 0.62 0.66 0.80 0.82 0.91 1.15 1.31 1.25 1.54 1.34 1.38 2.06 2.74 3.13 3.03 2.65 2.18 1.82 1.53 1.23 1.01 0.81 0.65 0.55
1.62 1.53 1.44 1.30 1.23 1.19 1.19 1.14 1.22 1.23 1.10 1.10 1.19 1.36 1.10 0.81 0.67 0.50 0.48 0.55 0.71 0.84 0.82 0.92 0.98 1.14 1.15 1.35 1.43 1.39 1.42 1.77 2.44 3.11 3.12 2.60 2.00 1.54 1.27 1.21 1.13 0.90 0.70
1.84 1.66 1.52 1.31 1.12 1.03 1.08 0.95 0.98 1.12 1.16 1.02 0.96 1.01 1.03 1.08 1.02 0.72 0.48 0.44 0.64 0.75 0.76 0.76 0.84 1.03 1.14 1.31 1.44 1.58 1.41 1.35 1.74 2.52 2.99 2.92 2.44 1.87 1.50 1.42 1.59 1.50 1.09
1.62 1.43 1.31 1.21 1.04 0.92 0.90 0.90 0.98 1.05 1.07 0.99 0.95 0.92 0.96 1.10 1.12 1.03 0.73 0.61 0.64 0.60 0.58 0.63 0.77 0.93 1.06 1.29 1.59 1.70 1.81 1.58 1.49 1.70 2.09 2.35 2.43 2.19 1.88 1.82 2.19 2.39 2.03
1.23 1.16 1.06 1.01 0.95 0.89 0.88 0.84 0.89 0.97 1.04 1.07 1.07 1.08 1.11 1.11 1.17 1.27 1.07 0.91 0.84 0.71 0.66 0.75 0.88 1.06 1.18 1.32 1.39 1.53 1.59 1.63 1.58 1.54 1.59 1.72 1.91 2.03 2.07 2.15 2.46 2.77 2.86
0.87 0.91 0.93 0.92 0.89 0.90 0.93 0.98 0.97 0.95 1.01 1.10 1.12 1.17 1.22 1.20 1.26 1.37 1.31 1.12 1.03 0.99 1.01 1.00 1.01 1.18 1.18 1.30 1.45 1.32 1.13 1.20 1.23 1.23 1.24 1.24 1.34 1.55 1.70 1.81 2.12 2.47 2.75
0.82 0.83 0.94 0.98 0.92 0.88 0.86 0.97 0.99 1.03 1.08 1.10 1.07 1.23 1.30 1.22 1.32 1.46 1.48 1.46 1.34 1.34 1.41 1.40 1.17 1.10 1.12 1.21 1.33 1.21 1.12 1.02 0.82 0.74 0.73 0.77 0.84 0.99 1.15 1.32 1.51 1.70 1.95
0.86 0.92 0.98 1.02 1.01 1.00 1.00 1.04 1.02 1.08 1.24 1.29 1.26 1.31 1.35 1.30 1.34 1.46 1.57 1.62 1.62 1.58 1.58 1.55 1.28 1.11 1.03 1.05 1.14 1.19 1.32 1.11 0.74 0.58 0.53 0.53 0.57 0.65 0.73 0.87 1.02 1.17 1.32
0.94 0.96 0.98 0.99 1.02 1.00 0.99 1.05 1.09 1.16 1.30 1.36 1.43 1.51 1.48 1.38 1.43 1.49 1.53 1.64 1.76 1.79 1.68 1.50 1.33 1.20 1.13 0.98 1.00 0.98 1.05 0.92 0.68 0.58 0.51 0.48 0.46 0.49 0.54 0.62 0.71 0.84 0.96
0.97 1.00 0.94 0.87 0.81 0.82 0.93 1.09 1.11 1.18 1.26 1.31 1.35 1.34 1.31 1.33 1.37 1.30 1.38 1.51 1.68 1.82 1.68 1.56 1.47 1.42 1.35 1.27 1.13 0.94 0.81 0.72 0.64 0.60 0.52 0.48 0.47 0.47 0.47 0.49 0.53 0.61 0.72
0.96 0.98 0.91 0.84 0.79 0.84 0.97 1.08 1.20 1.40 1.52 1.47 1.38 1.30 1.21 1.26 1.34 1.34 1.42 1.43 1.49 1.71 1.70 1.65 1.63 1.65 1.57 1.39 1.29 1.16 0.93 0.81 0.76 0.70 0.59 0.51 0.45 0.45 0.44 0.44 0.50 0.55 0.63
0.99 0.96 0.94 0.95 1.02 1.09 1.20 1.30 1.35 1.48 1.50 1.41 1.37 1.30 1.22 1.24 1.25 1.33 1.41 1.43 1.42 1.48 1.63 1.64 1.65 1.74 1.72 1.52 1.35 1.21 1.09 1.11 1.01 0.83 0.65 0.55 0.48 0.45 0.43 0.42 0.49 0.59 0.71
0.89 0.93 1.08 1.26 1.36 1.41 1.42 1.46 1.45 1.41 1.37 1.27 1.19 1.12 1.14 1.24 1.28 1.29 1.25 1.28 1.32 1.40 1.49 1.53 1.58 1.70 1.76 1.69 1.48 1.34 1.32 1.27 1.17 0.89 0.75 0.62 0.53 0.46 0.41 0.38 0.40 0.54 0.69
0.92 1.06 1.21 1.32 1.32 1.33 1.38 1.46 1.45 1.38 1.30 1.19 1.06 0.88 0.84 1.01 1.14 1.18 1.10 1.14 1.19 1.26 1.29 1.37 1.46 1.59 1.69 1.79 1.60 1.40 1.33 1.38 1.33 1.18 1.03 0.83 0.70 0.61 0.57 0.53 0.46 0.46 0.51
1.07 1.20 1.26 1.26 1.21 0.97 0.94 1.02 1.07 1.09 1.09 1.04 0.92 0.85 0.82 0.81 0.82 0.84 0.86 0.90 0.97 1.06 1.20 1.37 1.47 1.52 1.54 1.64 1.73 1.67 1.59 1.54 1.51 1.45 1.48 1.36 1.09 1.00 0.95 0.90 0.73 0.51 0.41
1.17 1.24 1.23 1.18 1.13 1.07 0.93 0.82 0.82 0.87 0.90 0.89 0.88 0.89 0.73 0.63 0.70 0.70 0.74 0.73 0.70 0.73 0.85 1.07 1.28 1.34 1.47 1.52 1.75 1.78 1.79 1.88 1.85 1.82 1.82 1.82 1.53 1.27 1.08 1.00 0.91 0.67 0.52
1.29 1.31 1.27 1.21 1.22 1.18 1.03 0.87 0.77 0.72 0.82 0.87 0.87 0.89 0.87 0.82 0.81 0.85 0.85 0.78 0.69 0.65 0.66 0.71 0.90 1.15 1.36 1.59 1.67 1.73 1.81 1.88 1.87 1.74 1.72 1.80 1.68 1.55 1.30 1.00 0.90 0.79 0.66
1.47 1.47 1.48 1.43 1.43 1.42 1.22 0.93 0.80 0.78 0.92 0.95 0.95 0.93 0.91 0.90 0.90 0.78 0.77 0.77 0.76 0.75 0.63 0.62 0.68 0.87 1.05 1.15 1.37 1.58 1.71 1.66 1.58 1.39 1.27 1.37 1.44 1.49 1.52 1.34 1.03 0.94 0.81
1.72 1.67 1.58 1.52 1.48 1.51 1.43 1.06 0.90 0.91 1.08 1.11 1.15 1.11 0.96 0.86 0.80 0.67 0.67 0.78 0.75 0.72 0.76 0.69 0.61 0.64 0.76 0.90 0.99 1.10 1.34 1.49 1.39 1.31 1.13 1.07 1.04 1.15 1.28 1.19 1.03 0.98 0.98

GEFSMA_prec_meanprecacc_156.txt.gz
Total_Precipitation_Accumulation
1.88 1.97 1.94 1.85 1.77 2.13 2.54 2.73 2.46 2.74 2.76 2.36 2.06 1.93 1.86 1.83 2.00 2.20 2.13 2.30 2.22 2.18 2.39 2.46 2.27 2.02 1.83 1.53 1.32 1.14 0.99 0.94 0.87 0.71 0.59 0.56 0.48 0.43 0.42 0.43 0.42 0.39 0.35
2.37 2.42 2.27 2.15 1.96 2.00 2.30 2.51 2.51 2.73 2.62 2.48 1.91 1.81 1.76 1.87 2.03 2.07 2.12 2.58 2.52 2.30 2.30 2.43 2.47 2.33 2.16 2.03 1.72 1.45 1.23 1.12 1.02 0.80 0.64 0.59 0.54 0.48 0.44 0.46 0.52 0.47 0.35
2.84 2.72 2.45 2.15 2.05 2.12 2.24 2.24 2.27 2.36 2.23 2.14 1.92 1.98 1.95 1.84 1.74 1.75 1.92 2.17 2.11 1.93 1.91 2.02 2.23 2.41 2.57 2.57 2.35 2.16 1.73 1.36 1.15 0.90 0.71 0.58 0.51 0.45 0.44 0.46 0.52 0.51 0.39
2.71 2.65 2.31 1.97 2.02 2.12 2.13 2.11 2.00 2.07 2.07 2.13 2.12 1.97 2.04 1.92 1.57 1.53 1.61 1.60 1.68 1.55 1.68 1.77 1.87 2.09 2.55 2.93 3.03 2.90 2.47 1.83 1.37 1.09 0.88 0.70 0.57 0.47 0.42 0.43 0.48 0.47 0.37
2.46 2.54 2.24 2.07 2.00 1.99 1.89 1.78 1.98 2.10 2.10 2.13 2.00 1.86 1.67 1.52 1.28 1.14 1.12 1.04 1.17 1.36 1.50 1.58 1.64 1.75 2.23 2.93 3.50 3.65 3.33 2.57 1.90 1.45 1.22 1.03 0.84 0.65 0.50 0.46 0.45 0.40 0.34
2.08 2.18 1.97 1.87 1.95 1.97 1.82 1.85 2.01 2.04 1.86 1.92 1.78 1.57 1.40 1.18 1.08 0.97 0.84 0.83 0.78 0.77 0.97 1.33 1.61 1.40 1.73 2.32 2.95 3.40 3.63 3.29 2.61 2.10 1.70 1.38 1.18 0.94 0.68 0.56 0.50 0.44 0.38
1.65 1.83 1.67 1.75 1.76 1.72 1.60 1.56 1.64 1.65 1.45 1.69 1.86 1.44 1.07 0.93 0.86 0.75 0.75 0.78 0.71 0.75 0.95 1.22 1.41 1.51 1.42 1.48 1.80 2.30 3.09 3.46 3.18 2.67 2.22 1.83 1.56 1.29 0.94 0.74 0.64 0.54 0.48
1.58 1.46 1.53 1.47 1.48 1.55 1.41 1.32 1.46 1.45 1.24 1.45 1.57 1.48 1.11 0.95 0.80 0.59 0.63 0.63 0.68 0.83 0.85 0.93 1.18 1.35 1.29 1.58 1.35 1.38 2.07 2.75 3.14 3.05 2.66 2.19 1.83 1.54 1.24 1.02 0.82 0.66 0.55
1.70 1.60 1.51 1.36 1.32 1.28 1.27 1.24 1.31 1.33 1.22 1.19 1.24 1.41 1.19 0.94 0.77 0.56 0.50 0.56 0.72 0.87 0.84 0.94 0.99 1.16 1.20 1.40 1.46 1.39 1.42 1.78 2.46 3.13 3.14 2.62 2.01 1.54 1.27 1.22 1.13 0.90 0.71
1.93 1.73 1.58 1.38 1.19 1.10 1.20 1.02 1.06 1.23 1.28 1.10 1.03 1.05 1.07 1.14 1.11 0.80 0.54 0.47 0.68 0.77 0.78 0.77 0.85 1.06 1.17 1.35 1.50 1.59 1.41 1.36 1.75 2.53 3.02 2.95 2.46 1.88 1.51 1.43 1.60 1.51 1.10
1.72 1.49 1.38 1.30 1.11 0.99 1.00 0.99 1.11 1.14 1.14 1.04 1.01 0.97 1.02 1.17 1.17 1.09 0.83 0.69 0.70 0.62 0.59 0.64 0.78 0.95 1.09 1.33 1.64 1.71 1.81 1.58 1.50 1.70 2.10 2.37 2.45 2.22 1.90 1.83 2.20 2.41 2.05
1.35 1.26 1.17 1.13 1.02 0.97 0.99 0.94 0.99 1.07 1.14 1.16 1.15 1.14 1.17 1.16 1.22 1.34 1.15 0.99 0.90 0.73 0.67 0.76 0.89 1.07 1.19 1.33 1.40 1.55 1.60 1.64 1.59 1.54 1.59 1.72 1.92 2.05 2.09 2.17 2.48 2.80 2.89
0.99 1.03 1.05 1.04 0.99 1.00 1.05 1.10 1.09 1.06 1.11 1.19 1.19 1.23 1.27 1.23 1.29 1.42 1.37 1.17 1.07 1.01 1.02 1.01 1.02 1.19 1.18 1.31 1.46 1.34 1.13 1.21 1.23 1.23 1.24 1.24 1.34 1.55 1.70 1.82 2.13 2.48 2.77
0.94 0.96 1.07 1.09 1.03 0.98 0.95 1.11 1.11 1.14 1.18 1.19 1.14 1.31 1.37 1.24 1.36 1.51 1.55 1.52 1.40 1.39 1.45 1.42 1.18 1.11 1.13 1.23 1.37 1.24 1.13 1.04 0.82 0.74 0.73 0.77 0.84 0.99 1.15 1.32 1.51 1.71 1.95
1.00 1.05 1.10 1.14 1.13 1.13 1.13 1.20 1.14 1.22 1.38 1.40 1.35 1.40 1.42 1.36 1.38 1.49 1.63 1.69 1.71 1.67 1.65 1.59 1.30 1.13 1.05 1.08 1.19 1.23 1.36 1.16 0.77 0.59 0.53 0.53 0.57 0.65 0.73 0.87 1.02 1.17 1.32
1.12 1.13 1.13 1.13 1.14 1.12 1.13 1.21 1.22 1.30 1.45 1.51 1.57 1.65 1.61 1.48 1.52 1.56 1.60 1.72 1.84 1.88 1.75 1.55 1.36 1.22 1.15 1.02 1.06 1.02 1.10 0.97 0.70 0.59 0.52 0.49 0.47 0.49 0.55 0.62 0.71 0.84 0.96
1.13 1.15 1.09 1.02 0.95 0.94 1.07 1.23 1.24 1.31 1.39 1.45 1.49 1.48 1.46 1.47 1.50 1.39 1.45 1.58 1.75 1.90 1.76 1.63 1.53 1.48 1.41 1.31 1.18 0.97 0.83 0.74 0.66 0.63 0.55 0.49 0.48 0.48 0.48 0.50 0.54 0.62 0.73
1.11 1.10 1.04 0.98 0.92 0.97 1.12 1.23 1.34 1.54 1.65 1.60 1.52 1.43 1.33 1.38 1.45 1.43 1.51 1.52 1.59 1.82 1.80 1.75 1.72 1.73 1.63 1.43 1.34 1.20 0.95 0.83 0.79 0.75 0.62 0.53 0.46 0.46 0.45 0.45 0.50 0.55 0.63
1.12 1.08 1.07 1.07 1.14 1.23 1.36 1.45 1.51 1.64 1.65 1.55 1.51 1.41 1.32 1.35 1.36 1.43 1.52 1.52 1.51 1.56 1.70 1.72 1.72 1.81 1.78 1.57 1.41 1.27 1.14 1.17 1.03 0.86 0.68 0.57 0.50 0.46 0.44 0.43 0.50 0.59 0.71
1.03 1.08 1.23 1.40 1.50 1.55 1.57 1.62 1.63 1.57 1.52 1.40 1.33 1.24 1.24 1.33 1.38 1.40 1.36 1.39 1.42 1.50 1.58 1.62 1.66 1.77 1.82 1.74 1.55 1.41 1.38 1.33 1.21 0.91 0.77 0.64 0.55 0.47 0.42 0.39 0.41 0.54 0.69
1.06 1.20 1.37 1.49 1.47 1.47 1.48 1.57 1.59 1.53 1.44 1.31 1.18 0.99 0.95 1.14 1.27 1.30 1.20 1.26 1.31 1.37 1.40 1.47 1.55 1.67 1.76 1.87 1.68 1.46 1.39 1.44 1.37 1.21 1.05 0.86 0.72 0.64 0.60 0.55 0.47 0.47 0.52
1.23 1.35 1.40 1.40 1.35 1.08 1.05 1.13 1.21 1.25 1.24 1.18 1.07 0.99 0.94 0.95 0.94 0.93 0.94 0.97 1.04 1.14 1.28 1.46 1.55 1.61 1.63 1.73 1.81 1.72 1.65 1.60 1.56 1.50 1.53 1.40 1.12 1.04 0.99 0.93 0.77 0.55 0.44
1.32 1.38 1.37 1.34 1.29 1.22 1.07 0.94 0.92 0.99 1.05 1.06 1.05 1.07 0.86 0.75 0.83 0.83 0.85 0.80 0.76 0.79 0.91 1.15 1.36 1.43 1.56 1.60 1.83 1.85 1.87 1.95 1.91 1.87 1.89 1.87 1.56 1.32 1.12 1.05 0.96 0.70 0.54
1.47 1.46 1.44 1.39 1.40 1.33 1.18 1.00 0.88 0.85 0.98 1.05 1.04 1.05 1.03 0.97 0.94 0.99 0.99 0.91 0.79 0.74 0.74 0.78 0.99 1.25 1.46 1.69 1.76 1.80 1.88 1.94 1.92 1.80 1.78 1.85 1.73 1.60 1.33 1.04 0.92 0.82 0.68
1.64 1.64 1.67 1.63 1.60 1.58 1.36 1.06 0.92 0.93 1.08 1.09 1.09 1.07 1.06 1.03 1.01 0.90 0.90 0.91 0.88 0.86 0.71 0.71 0.77 0.95 1.13 1.22 1.43 1.63 1.77 1.71 1.62 1.43 1.32 1.42 1.48 1.53 1.55 1.37 1.05 0.96 0.82
1.87 1.82 1.75 1.70 1.63 1.65 1.56 1.19 1.02 1.04 1.21 1.24 1.27 1.23 1.08 0.95 0.88 0.77 0.78 0.91 0.89 0.86 0.88 0.80 0.69 0.71 0.82 0.95 1.02 1.14 1.38 1.54 1.44 1.35 1.16 1.10 1.07 1.18 1.30 1.21 1.05 1.00 0.99

GEFSMA_prec_meanprecacc_162.txt.gz
Total_Precipitation_Accumulation
1.91 1.98 1.95 1.87 1.79 2.14 2.56 2.77 2.50 2.78 2.80 2.40 2.09 1.98 1.93 1.91 2.07 2.27 2.16 2.32 2.24 2.20 2.40 2.46 2.28 2.03 1.84 1.55 1.32 1.14 0.99 0.95 0.88 0.71 0.60 0.56 0.49 0.43 0.42 0.43 0.43 0.39 0.36
2.40 2.44 2.29 2.20 1.99 2.02 2.32 2.55 2.56 2.78 2.66 2.51 1.94 1.86 1.81 1.92 2.09 2.13 2.15 2.60 2.55 2.33 2.33 2.45 2.48 2.33 2.17 2.04 1.73 1.46 1.25 1.14 1.03 0.80 0.64 0.59 0.55 0.48 0.45 0.47 0.52 0.47 0.36
2.87 2.73 2.48 2.18 2.08 2.14 2.27 2.28 2.31 2.40 2.26 2.18 1.96 2.03 1.99 1.88 1.78 1.81 1.95 2.18 2.12 1.95 1.94 2.04 2.25 2.43 2.58 2.57 2.36 2.18 1.75 1.37 1.15 0.90 0.71 0.58 0.51 0.45 0.44 0.46 0.52 0.51 0.39
2.74 2.66 2.33 1.99 2.04 2.15 2.15 2.13 2.03 2.12 2.14 2.20 2.17 2.03 2.11 1.97 1.61 1.57 1.64 1.61 1.69 1.56 1.69 1.79 1.90 2.11 2.57 2.94 3.04 2.92 2.49 1.83 1.38 1.09 0.88 0.70 0.58 0.48 0.43 0.44 0.48 0.48 0.37
2.48 2.55 2.25 2.09 2.02 2.01 1.92 1.80 2.00 2.14 2.14 2.17 2.04 1.92 1.74 1.58 1.33 1.19 1.17 1.07 1.18 1.37 1.51 1.59 1.65 1.76 2.25 2.95 3.54 3.69 3.35 2.59 1.92 1.46 1.23 1.04 0.85 0.65 0.51 0.47 0.46 0.41 0.34
2.11 2.21 1.99 1.90 1.98 2.00 1.84 1.87 2.04 2.08 1.90 1.96 1.83 1.64 1.47 1.24 1.12 1.01 0.87 0.86 0.81 0.79 0.99 1.33 1.62 1.41 1.75 2.34 2.97 3.42 3.66 3.32 2.63 2.12 1.71 1.39 1.19 0.95 0.68 0.57 0.50 0.45 0.38
1.71 1.90 1.70 1.79 1.80 1.75 1.62 1.58 1.67 1.68 1.50 1.74 1.93 1.52 1.17 1.01 0.91 0.79 0.77 0.81 0.74 0.80 0.99 1.24 1.42 1.52 1.43 1.49 1.82 2.33 3.13 3.51 3.22 2.69 2.25 1.86 1.58 1.31 0.96 0.75 0.65 0.54 0.49
1.68 1.54 1.58 1.50 1.51 1.59 1.44 1.35 1.48 1.48 1.27 1.48 1.60 1.53 1.17 1.02 0.87 0.63 0.66 0.66 0.71 0.87 0.90 0.97 1.20 1.37 1.30 1.59 1.36 1.40 2.10 2.80 3.20 3.10 2.70 2.22 1.86 1.56 1.26 1.04 0.83 0.66 0.56
1.85 1.71 1.57 1.41 1.36 1.31 1.30 1.27 1.34 1.37 1.27 1.22 1.27 1.43 1.21 0.96 0.80 0.59 0.53 0.58 0.76 0.93 0.89 0.97 1.02 1.18 1.21 1.41 1.47 1.40 1.44 1.80 2.49 3.18 3.19 2.64 2.03 1.56 1.28 1.23 1.15 0.91 0.72
2.10 1.86 1.69 1.45 1.23 1.13 1.23 1.05 1.10 1.28 1.33 1.14 1.07 1.08 1.09 1.19 1.13 0.83 0.56 0.50 0.70 0.80 0.83 0.81 0.89 1.10 1.20 1.38 1.52 1.61 1.43 1.37 1.77 2.56 3.06 2.98 2.49 1.90 1.52 1.44 1.61 1.53 1.12
1.88 1.63 1.49 1.38 1.16 1.03 1.04 1.03 1.15 1.17 1.17 1.07 1.05 1.02 1.09 1.22 1.19 1.11 0.84 0.72 0.72 0.65 0.63 0.68 0.82 0.99 1.12 1.37 1.67 1.75 1.85 1.60 1.51 1.72 2.12 2.40 2.49 2.25 1.93 1.85 2.22 2.44 2.08
1.53 1.41 1.29 1.24 1.11 1.04 1.04 1.00 1.05 1.11 1.16 1.19 1.18 1.18 1.21 1.20 1.24 1.36 1.18 1.00 0.91 0.75 0.70 0.80 0.93 1.10 1.23 1.37 1.44 1.59 1.64 1.67 1.60 1.55 1.60 1.74 1.94 2.07 2.11 2.19 2.50 2.82 2.92
1.15 1.15 1.17 1.18 1.11 1.10 1.13 1.19 1.17 1.12 1.15 1.22 1.21 1.26 1.30 1.25 1.32 1.45 1.42 1.21 1.09 1.04 1.07 1.07 1.06 1.22 1.22 1.36 1.51 1.39 1.18 1.26 1.28 1.26 1.26 1.26 1.36 1.58 1.72 1.83 2.15 2.51 2.80
1.05 1.07 1.20 1.23 1.14 1.09 1.04 1.19 1.18 1.20 1.24 1.24 1.18 1.35 1.40 1.27 1.41 1.58 1.63 1.60 1.45 1.43 1.48 1.46 1.22 1.15 1.19 1.30 1.43 1.31 1.19 1.10 0.89 0.80 0.80 0.84 0.88 1.01 1.16 1.33 1.52 1.72 1.97
1.15 1.21 1.25 1.31 1.29 1.26 1.24 1.30 1.23 1.29 1.45 1.46 1.40 1.44 1.47 1.40 1.45 1.57 1.70 1.78 1.78 1.73 1.70 1.63 1.35 1.20 1.14 1.17 1.27 1.29 1.41 1.23 0.84 0.66 0.59 0.58 0.60 0.66 0.74 0.88 1.02 1.18 1.32
1.26 1.29 1.28 1.29 1.32 1.30 1.28 1.35 1.34 1.40 1.55 1.59 1.63 1.71 1.66 1.55 1.59 1.63 1.67 1.81 1.95 1.97 1.82 1.59 1.40 1.27 1.22 1.09 1.13 1.08 1.14 1.01 0.74 0.62 0.55 0.52 0.50 0.51 0.57 0.64 0.72 0.85 0.97
1.25 1.27 1.22 1.19 1.15 1.18 1.31 1.45 1.42 1.45 1.51 1.56 1.57 1.55 1.52 1.53 1.57 1.47 1.52 1.64 1.82 1.98 1.83 1.67 1.56 1.52 1.49 1.40 1.25 1.03 0.86 0.77 0.68 0.66 0.57 0.52 0.50 0.51 0.50 0.52 0.56 0.64 0.74
1.23 1.22 1.16 1.13 1.10 1.19 1.36 1.46 1.53 1.70 1.79 1.72 1.61 1.51 1.39 1.44 1.51 1.49 1.57 1.58 1.65 1.88 1.87 1.79 1.75 1.77 1.69 1.52 1.41 1.24 0.98 0.85 0.82 0.78 0.65 0.56 0.49 0.49 0.48 0.48 0.53 0.58 0.66
1.22 1.20 1.20 1.24 1.31 1.41 1.54 1.62 1.67 1.81 1.80 1.67 1.61 1.49 1.40 1.42 1.44 1.53 1.61 1.59 1.56 1.61 1.77 1.77 1.75 1.84 1.80 1.61 1.47 1.31 1.17 1.20 1.07 0.89 0.71 0.61 0.54 0.49 0.47 0.45 0.52 0.61 0.74
1.11 1.17 1.34 1.53 1.64 1.70 1.73 1.78 1.78 1.74 1.68 1.55 1.45 1.35 1.36 1.46 1.51 1.52 1.46 1.45 1.47 1.56 1.65 1.68 1.70 1.81 1.86 1.79 1.60 1.45 1.41 1.37 1.25 0.94 0.81 0.69 0.59 0.50 0.45 0.40 0.43 0.56 0.71
1.16 1.33 1.50 1.62 1.62 1.62 1.66 1.75 1.74 1.67 1.59 1.45 1.32 1.12 1.08 1.27 1.39 1.42 1.30 1.36 1.41 1.45 1.47 1.55 1.62 1.74 1.82 1.94 1.75 1.52 1.44 1.47 1.40 1.25 1.10 0.89 0.75 0.66 0.62 0.58 0.50 0.50 0.56
1.34 1.48 1.54 1.53 1.46 1.21 1.22 1.30 1.36 1.40 1.40 1.32 1.19 1.11 1.08 1.11 1.09 1.06 1.05 1.07 1.13 1.22 1.37 1.55 1.64 1.67 1.69 1.80 1.86 1.78 1.70 1.64 1.59 1.52 1.56 1.42 1.14 1.06 1.01 0.95 0.80 0.57 0.47
1.42 1.48 1.48 1.45 1.39 1.34 1.21 1.08 1.06 1.13 1.20 1.18 1.18 1.20 1.00 0.89 0.98 0.98 1.00 0.93 0.86 0.88 0.99 1.22 1.43 1.49 1.61 1.64 1.88 1.90 1.91 1.99 1.95 1.90 1.93 1.90 1.59 1.34 1.14 1.07 0.98 0.73 0.57
1.59 1.56 1.53 1.48 1.49 1.45 1.33 1.14 1.02 0.98 1.13 1.19 1.17 1.17 1.15 1.09 1.06 1.11 1.13 1.04 0.91 0.85 0.83 0.85 1.05 1.31 1.52 1.75 1.81 1.85 1.93 1.98 1.97 1.85 1.84 1.90 1.77 1.65 1.36 1.07 0.96 0.85 0.71
1.73 1.72 1.75 1.72 1.70 1.68 1.47 1.17 1.04 1.06 1.23 1.26 1.26 1.23 1.20 1.16 1.15 1.03 1.01 1.01 0.99 0.95 0.79 0.77 0.83 1.01 1.18 1.27 1.48 1.69 1.83 1.78 1.69 1.49 1.38 1.49 1.55 1.60 1.60 1.41 1.08 0.98 0.84
1.93 1.88 1.81 1.77 1.72 1.73 1.64 1.25 1.09 1.13 1.31 1.35 1.41 1.38 1.24 1.11 1.03 0.90 0.90 1.02 0.98 0.94 0.93 0.85 0.74 0.77 0.87 1.01 1.09 1.19 1.44 1.61 1.51 1.43 1.23 1.17 1.15 1.26 1.38 1.28 1.10 1.03 1.02

GEFSMA_prec_meanprecacc_168.txt.gz
Total_Precipitation_Accumulation
1.92 1.99 1.95 1.87 1.79 2.15 2.57 2.78 2.51 2.79 2.81 2.41 2.11 2.00 1.95 1.93 2.11 2.31 2.17 2.34 2.27 2.22 2.43 2.47 2.28 2.05 1.86 1.57 1.34 1.15 1.00 0.96 0.89 0.72 0.60 0.57 0.50 0.44 0.44 0.44 0.44 0.40 0.37
2.41 2.44 2.29 2.20 2.00 2.03 2.33 2.56 2.57 2.79 2.68 2.53 1.96 1.87 1.82 1.95 2.13 2.17 2.17 2.62 2.59 2.37 2.36 2.48 2.50 2.36 2.20 2.06 1.76 1.48 1.27 1.16 1.05 0.82 0.65 0.60 0.56 0.50 0.47 0.48 0.53 0.48 0.37
2.87 2.74 2.48 2.18 2.08 2.15 2.28 2.29 2.33 2.42 2.29 2.21 1.99 2.05 2.01 1.92 1.82 1.84 1.97 2.19 2.14 1.99 1.98 2.09 2.30 2.47 2.62 2.62 2.40 2.22 1.78 1.40 1.17 0.92 0.73 0.60 0.52 0.46 0.45 0.47 0.53 0.52 0.40
2.76 2.68 2.34 2.01 2.06 2.17 2.17 2.16 2.05 2.14 2.17 2.23 2.20 2.05 2.13 2.01 1.64 1.60 1.66 1.63 1.70 1.57 1.72 1.84 1.96 2.16 2.61 2.98 3.08 2.97 2.52 1.86 1.40 1.10 0.89 0.71 0.59 0.48 0.44 0.44 0.49 0.49 0.38
2.55 2.59 2.28 2.12 2.05 2.05 1.96 1.85 2.03 2.16 2.17 2.21 2.08 1.97 1.78 1.60 1.36 1.22 1.20 1.09 1.20 1.38 1.52 1.62 1.72 1.82 2.29 3.00 3.58 3.75 3.40 2.63 1.96 1.50 1.26 1.05 0.86 0.66 0.52 0.48 0.47 0.42 0.35
2.20 2.28 2.04 1.95 2.03 2.07 1.90 1.91 2.08 2.11 1.93 2.01 1.90 1.72 1.52 1.27 1.15 1.03 0.89 0.88 0.83 0.81 1.00 1.34 1.63 1.43 1.78 2.39 3.02 3.49 3.72 3.36 2.67 2.15 1.75 1.42 1.21 0.97 0.69 0.58 0.52 0.46 0.39
1.79 1.97 1.78 1.86 1.87 1.82 1.67 1.62 1.70 1.71 1.52 1.78 1.99 1.59 1.21 1.04 0.93 0.80 0.78 0.83 0.76 0.82 1.01 1.25 1.43 1.52 1.44 1.52 1.85 2.37 3.18 3.56 3.27 2.74 2.29 1.90 1.62 1.35 0.98 0.77 0.67 0.55 0.50
1.78 1.61 1.65 1.56 1.57 1.64 1.48 1.38 1.51 1.51 1.31 1.54 1.66 1.62 1.22 1.04 0.88 0.63 0.66 0.67 0.75 0.91 0.93 0.99 1.21 1.37 1.31 1.61 1.37 1.43 2.15 2.85 3.26 3.17 2.75 2.26 1.89 1.58 1.28 1.06 0.86 0.68 0.57
1.99 1.83 1.65 1.48 1.44 1.36 1.34 1.31 1.39 1.41 1.32 1.27 1.31 1.47 1.23 0.97 0.81 0.59 0.54 0.59 0.78 0.95 0.92 1.00 1.03 1.19 1.24 1.43 1.48 1.42 1.47 1.84 2.55 3.25 3.26 2.70 2.07 1.58 1.30 1.25 1.17 0.93 0.73
2.23 1.97 1.78 1.54 1.32 1.21 1.29 1.10 1.15 1.33 1.39 1.19 1.12 1.10 1.11 1.20 1.14 0.83 0.57 0.50 0.71 0.81 0.84 0.83 0.91 1.12 1.24 1.40 1.54 1.63 1.45 1.39 1.82 2.62 3.13 3.06 2.56 1.94 1.54 1.46 1.64 1.55 1.14
1.99 1.75 1.62 1.51 1.26 1.10 1.10 1.09 1.21 1.22 1.23 1.12 1.10 1.07 1.13 1.26 1.21 1.11 0.85 0.72 0.73 0.66 0.64 0.70 0.84 1.03 1.17 1.41 1.72 1.79 1.88 1.63 1.53 1.75 2.17 2.45 2.54 2.30 1.97 1.90 2.27 2.48 2.13
1.62 1.52 1.43 1.37 1.21 1.11 1.11 1.07 1.13 1.17 1.22 1.23 1.22 1.22 1.24 1.24 1.27 1.38 1.19 1.01 0.92 0.76 0.72 0.83 0.96 1.13 1.26 1.42 1.49 1.64 1.68 1.70 1.63 1.57 1.63 1.77 1.98 2.12 2.17 2.24 2.54 2.86 2.96
1.24 1.26 1.32 1.31 1.22 1.18 1.21 1.27 1.24 1.17 1.20 1.26 1.25 1.30 1.34 1.28 1.35 1.48 1.44 1.22 1.10 1.05 1.08 1.09 1.08 1.24 1.24 1.40 1.55 1.44 1.24 1.32 1.34 1.30 1.29 1.29 1.39 1.61 1.77 1.88 2.18 2.54 2.83
1.15 1.18 1.31 1.32 1.22 1.17 1.13 1.27 1.24 1.24 1.29 1.29 1.23 1.39 1.44 1.31 1.46 1.62 1.67 1.64 1.48 1.44 1.50 1.47 1.23 1.18 1.21 1.33 1.46 1.36 1.24 1.16 0.94 0.85 0.84 0.88 0.92 1.04 1.18 1.35 1.54 1.74 1.99
1.24 1.31 1.35 1.40 1.38 1.35 1.34 1.38 1.31 1.36 1.50 1.50 1.44 1.48 1.50 1.45 1.51 1.62 1.76 1.83 1.82 1.76 1.72 1.64 1.36 1.22 1.17 1.20 1.31 1.34 1.46 1.27 0.88 0.70 0.62 0.61 0.63 0.69 0.77 0.90 1.04 1.19 1.34
1.36 1.37 1.35 1.37 1.42 1.42 1.39 1.45 1.44 1.50 1.65 1.66 1.71 1.78 1.71 1.60 1.66 1.70 1.75 1.89 2.03 2.04 1.87 1.63 1.42 1.29 1.24 1.13 1.19 1.13 1.19 1.06 0.78 0.65 0.58 0.55 0.52 0.55 0.60 0.66 0.74 0.87 0.98
1.34 1.35 1.29 1.27 1.24 1.28 1.43 1.56 1.53 1.58 1.63 1.68 1.70 1.66 1.61 1.62 1.65 1.56 1.61 1.72 1.89 2.04 1.89 1.71 1.59 1.54 1.51 1.43 1.30 1.08 0.91 0.81 0.72 0.69 0.59 0.53 0.52 0.53 0.53 0.55 0.60 0.68 0.78
1.33 1.33 1.27 1.23 1.20 1.30 1.48 1.57 1.65 1.81 1.90 1.83 1.73 1.63 1.51 1.53 1.58 1.56 1.64 1.64 1.70 1.93 1.91 1.83 1.78 1.80 1.72 1.55 1.45 1.29 1.02 0.89 0.84 0.81 0.67 0.57 0.50 0.51 0.50 0.50 0.55 0.59 0.68
1.31 1.30 1.30 1.35 1.44 1.55 1.68 1.75 1.81 1.96 1.95 1.82 1.75 1.62 1.49 1.51 1.51 1.60 1.70 1.67 1.63 1.67 1.82 1.81 1.78 1.87 1.84 1.65 1.51 1.35 1.21 1.24 1.09 0.91 0.73 0.63 0.56 0.52 0.50 0.48 0.54 0.63 0.75
1.18 1.25 1.42 1.63 1.76 1.83 1.87 1.92 1.92 1.87 1.82 1.68 1.56 1.46 1.46 1.55 1.60 1.61 1.55 1.53 1.55 1.63 1.71 1.74 1.76 1.87 1.91 1.83 1.64 1.49 1.46 1.41 1.29 0.98 0.85 0.73 0.63 0.54 0.49 0.44 0.46 0.59 0.74
1.21 1.39 1.55 1.68 1.69 1.72 1.78 1.88 1.86 1.79 1.70 1.56 1.43 1.24 1.19 1.39 1.51 1.53 1.41 1.46 1.50 1.53 1.55 1.61 1.67 1.78 1.86 1.97 1.79 1.56 1.49 1.53 1.46 1.30 1.15 0.94 0.79 0.69 0.65 0.61 0.53 0.54 0.59
1.39 1.53 1.58 1.56 1.51 1.27 1.31 1.43 1.49 1.50 1.49 1.41 1.29 1.21 1.17 1.21 1.19 1.17 1.15 1.17 1.23 1.32 1.46 1.63 1.71 1.74 1.74 1.85 1.91 1.83 1.75 1.70 1.64 1.58 1.62 1.47 1.18 1.10 1.04 0.98 0.83 0.62 0.51
1.53 1.58 1.57 1.52 1.44 1.40 1.30 1.17 1.14 1.19 1.27 1.27 1.27 1.30 1.10 0.99 1.08 1.08 1.13 1.08 1.00 1.02 1.11 1.33 1.54 1.59 1.70 1.72 1.94 1.96 1.97 2.04 2.00 1.95 1.98 1.95 1.65 1.40 1.20 1.13 1.05 0.79 0.64
1.73 1.70 1.68 1.60 1.56 1.52 1.40 1.20 1.08 1.04 1.20 1.26 1.25 1.27 1.25 1.19 1.17 1.24 1.26 1.19 1.06 0.99 0.97 0.98 1.18 1.43 1.64 1.84 1.89 1.93 2.00 2.05 2.03 1.89 1.89 1.95 1.83 1.71 1.43 1.13 1.03 0.91 0.77
1.84 1.80 1.82 1.80 1.77 1.74 1.54 1.24 1.11 1.12 1.30 1.34 1.34 1.33 1.32 1.28 1.27 1.14 1.12 1.15 1.14 1.10 0.93 0.91 0.96 1.14 1.30 1.37 1.55 1.74 1.87 1.82 1.73 1.53 1.41 1.53 1.59 1.65 1.66 1.47 1.15 1.04 0.88
1.99 1.94 1.88 1.84 1.79 1.79 1.71 1.31 1.14 1.17 1.38 1.44 1.50 1.47 1.34 1.22 1.17 1.04 1.03 1.16 1.12 1.07 1.04 0.94 0.83 0.85 0.95 1.08 1.15 1.23 1.48 1.65 1.55 1.48 1.28 1.22 1.20 1.31 1.45 1.33 1.14 1.07 1.06